KD4EG Weather Reports


Display with metric or nautical units.
time (UTC)temp
F
wind
direction
speed
MPH
gust
MPH
rain 1hr
in
rain 24hr
in
rain mn
in
humidity
%
barometer
mb
20260502130405 50 294 1.0 1.0 0.00 0.00 0.00 52 1016.8
20260502123347 49 300 1.0 1.0 0.00 0.00 0.00 54 1016.7
20260502122844 49 320 3.0 3.0 0.00 0.00 0.00 54 1016.8
20260502122340 49 324 2.0 2.0 0.00 0.00 0.00 53 1016.8
20260502121839 49 206 2.0 2.0 0.00 0.00 0.00 55 1017.1
20260502121336 49 296 1.0 1.0 0.00 0.00 0.00 54 1016.9
20260502120833 49 281 3.0 3.0 0.00 0.00 0.00 55 1016.8
20260502120329 49 312 1.0 1.0 0.00 0.00 0.00 56 1016.5
20260502115827 49 301 0.0 0.0 0.00 0.00 0.00 57 1016.8
20260502115324 49 312 1.0 1.0 0.00 0.00 0.00 56 1016.5
20260502114820 49 308 0.0 1.0 0.00 0.00 0.00 55 1016.7
20260502114317 49 299 1.0 1.0 0.00 0.00 0.00 56 1016.3
20260502113814 49 303 1.0 2.0 0.00 0.00 0.00 55 1016.3
20260502113312 49 270 0.0 1.0 0.00 0.00 0.00 54 1016.3
20260502112810 49 281 1.0 1.0 0.00 0.00 0.00 55 1016.3
20260502112307 49 308 0.0 0.0 0.00 0.00 0.00 54 1016.4
20260502111804 49 302 1.0 1.0 0.00 0.00 0.00 54 1016.2
20260502111301 49 300 0.0 0.0 0.00 0.00 0.00 53 1016.3
20260502110759 49 285 3.0 3.0 0.00 0.00 0.00 53 1016.4
20260502110256 49 314 1.0 1.0 0.00 0.00 0.00 53 1016.3
20260502105754 49 307 0.0 0.0 0.00 0.00 0.00 55 1016.0
20260502105250 49 298 0.0 0.0 0.00 0.00 0.00 54 1016.0
20260502104748 49 308 0.0 0.0 0.00 0.00 0.00 54 1016.2
20260502104245 49 283 2.0 2.0 0.00 0.00 0.00 52 1016.2
20260502103743 49 291 2.0 2.0 0.00 0.00 0.00 51 1016.3
20260502103240 49 294 1.0 2.0 0.00 0.00 0.00 51 1016.3
20260502102738 49 281 0.0 1.0 0.00 0.00 0.00 52 1016.4
20260502102233 49 332 2.0 3.0 0.00 0.00 0.00 52 1016.2
20260502101732 50 299 1.0 1.0 0.00 0.00 0.00 51 1016.0
20260502101230 50 344 3.0 5.0 0.00 0.00 0.00 50 1016.3
20260502100727 50 283 2.0 3.0 0.00 0.00 0.00 50 1016.3
20260502100226 50 301 2.0 2.0 0.00 0.00 0.00 50 1016.4
20260502091200 51 314 3.0 3.0 0.00 0.00 0.00 50 1016.2
20260502090657 50 250 2.0 2.0 0.00 0.00 0.00 53 1015.9
20260502090154 50 301 1.0 1.0 0.00 0.00 0.00 56 1015.9
20260502071055 52 304 1.0 1.0 0.00 0.00 0.00 67 1015.5
20260502070553 52 319 3.0 3.0 0.00 0.00 0.00 66 1015.7
20260502070051 52 315 2.0 2.0 0.00 0.00 0.00 66 1015.9
20260502065549 52 297 1.0 1.0 0.00 0.00 0.00 66 1015.9
20260502065047 52 319 4.0 5.0 0.00 0.00 0.00 66 1016.0
20260502064545 52 302 3.0 5.0 0.00 0.00 0.00 66 1015.7
20260502064042 52 293 2.0 2.0 0.00 0.00 0.00 66 1015.8
20260502063539 52 255 1.0 1.0 0.00 0.00 0.00 66 1015.5
20260502063037 53 293 1.0 2.0 0.00 0.00 0.00 65 1015.7
20260502062534 53 316 1.0 2.0 0.00 0.00 0.00 65 1015.8
20260502062032 53 296 3.0 3.0 0.00 0.00 0.00 64 1016.0
20260502061530 53 284 2.0 3.0 0.00 0.00 0.00 65 1015.9
20260502061027 53 298 2.0 2.0 0.00 0.00 0.00 64 1015.9
20260502060522 53 316 2.0 3.0 0.00 0.00 0.00 64 1016.2
20260502060019 53 314 1.0 2.0 0.00 0.00 0.00 64 1015.9
20260502055516 53 274 1.0 2.0 0.00 0.00 0.00 63 1016.2
20260502055015 53 300 1.0 1.0 0.00 0.00 0.00 64 1015.8
20260502054513 53 279 4.0 5.0 0.00 0.00 0.00 63 1015.8
20260502054010 53 292 1.0 1.0 0.00 0.00 0.00 63 1015.5
20260502053507 53 292 3.0 3.0 0.00 0.00 0.00 63 1015.7
20260502053005 54 298 2.0 2.0 0.00 0.00 0.00 62 1015.8
20260502052503 54 289 4.0 5.0 0.00 0.00 0.00 62 1015.7
20260502052001 54 244 1.0 1.0 0.00 0.00 0.00 62 1015.9
20260502051459 54 329 2.0 2.0 0.00 0.00 0.00 61 1015.8
20260502050955 54 169 3.0 5.0 0.00 0.00 0.00 61 1015.9
20260502050452 54 296 2.0 2.0 0.00 0.00 0.00 61 1015.7
20260502045949 55 340 5.0 9.0 0.00 0.00 0.00 61 1015.9
20260502045446 55 111 2.0 3.0 0.00 0.00 0.00 61 1015.8
20260502044943 55 205 2.0 2.0 0.00 0.00 0.00 61 1015.8
20260502044438 55 324 1.0 1.0 0.00 0.00 0.00 61 1015.8
20260502043936 55 174 2.0 3.0 0.00 0.00 0.00 62 1015.7
20260502043434 55 292 2.0 2.0 0.00 0.00 0.00 62 1015.7
20260502042933 56 315 7.0 8.0 0.00 0.00 0.00 61 1015.6
20260502042430 56 266 1.0 2.0 0.00 0.00 0.00 62 1015.7
20260502041927 56 290 4.0 6.0 0.00 0.00 0.00 61 1015.6
20260502041425 56 323 3.0 3.0 0.00 0.00 0.00 63 1015.5
20260502040922 56 3 1.0 2.0 0.00 0.00 0.00 62 1015.5
20260502040418 57 278 3.0 3.0 0.00 0.00 0.00 62 1015.4
20260502035915 57 291 2.0 2.0 0.00 0.00 0.00 62 1015.6
20260502035411 57 124 2.0 2.0 0.00 0.00 0.00 62 1015.3
20260502034909 57 304 5.0 7.0 0.00 0.00 0.00 61 1015.6
20260502034408 57 303 2.0 2.0 0.00 0.00 0.00 62 1015.4
20260502033906 57 273 4.0 6.0 0.00 0.00 0.00 62 1015.4
20260502033403 57 290 5.0 7.0 0.00 0.00 0.00 62 1015.3
20260502032859 57 313 5.0 6.0 0.00 0.00 0.00 62 1015.1
20260502032355 57 315 3.0 5.0 0.00 0.00 0.00 62 1015.1
20260502031853 58 306 2.0 2.0 0.00 0.00 0.00 62 1014.9
20260502031351 58 314 11.0 16.0 0.00 0.00 0.00 61 1014.9
20260502030849 58 0 2.0 3.0 0.00 0.00 0.00 61 1014.9
20260502030347 58 232 5.0 9.0 0.00 0.00 0.00 61 1015.0
20260502025844 58 281 3.0 5.0 0.00 0.00 0.00 60 1014.9
20260502025342 58 353 6.0 8.0 0.00 0.00 0.00 60 1014.6
20260502024839 59 300 6.0 8.0 0.00 0.00 0.00 59 1014.9
20260502024337 59 299 1.0 2.0 0.00 0.00 0.00 58 1014.5
20260502023835 59 31 3.0 5.0 0.00 0.00 0.00 58 1014.6
20260502023332 60 282 4.0 7.0 0.00 0.00 0.00 56 1014.4
20260502022830 60 301 0.0 0.0 0.00 0.00 0.00 55 1014.6
20260502022326 60 300 3.0 6.0 0.00 0.00 0.00 55 1014.4
20260502021823 60 240 2.0 3.0 0.00 0.00 0.00 55 1014.4
20260502021320 60 358 3.0 3.0 0.00 0.00 0.00 56 1014.4
20260502020817 59 276 1.0 2.0 0.00 0.00 0.00 60 1013.7
20260502020315 59 317 1.0 2.0 0.00 0.00 0.00 65 1013.7
20260502015812 59 294 2.0 2.0 0.00 0.00 0.00 66 1013.8
20260502015309 59 288 1.0 1.0 0.00 0.00 0.00 67 1013.7
20260502014806 59 303 1.0 1.0 0.00 0.00 0.00 68 1013.6
20260502014303 59 307 2.0 2.0 0.00 0.00 0.00 67 1013.6
20260502013759 59 297 1.0 1.0 0.00 0.00 0.00 66 1013.4
20260502013255 59 315 1.0 1.0 0.00 0.00 0.00 65 1013.5
20260502012751 60 326 2.0 2.0 0.00 0.00 0.00 64 1013.3
20260502012249 60 300 1.0 2.0 0.00 0.00 0.00 64 1013.2
20260502011747 60 298 2.0 2.0 0.00 0.00 0.00 63 1013.3
20260502011242 60 291 0.0 1.0 0.00 0.00 0.00 62 1013.0
20260502010740 61 320 3.0 3.0 0.00 0.00 0.00 61 1012.8
20260502010236 61 305 1.0 2.0 0.00 0.00 0.00 60 1012.8
20260502005733 61 289 3.0 3.0 0.00 0.00 0.00 61 1012.7
20260502005231 61 319 0.0 1.0 0.00 0.00 0.00 61 1012.6
20260502004727 61 304 1.0 1.0 0.00 0.00 0.00 60 1012.4
20260502004224 62 326 0.0 0.0 0.00 0.00 0.00 59 1012.4
20260502003722 62 300 1.0 1.0 0.00 0.00 0.00 58 1012.5
20260502003219 62 303 3.0 3.0 0.00 0.00 0.00 57 1012.4
20260502002714 63 4 2.0 3.0 0.00 0.00 0.00 56 1012.3
20260502002213 63 283 2.0 2.0 0.00 0.00 0.00 56 1012.0
20260502001709 63 266 2.0 3.0 0.00 0.00 0.00 56 1012.1
20260502001208 63 316 0.0 1.0 0.00 0.00 0.00 57 1011.9
20260502000704 64 290 2.0 2.0 0.00 0.00 0.00 54 1011.9
20260502000204 64 299 1.0 2.0 0.00 0.00 0.00 53 1011.8
20260501235658 64 291 1.0 1.0 0.00 0.00 0.00 53 1011.6
20260501235154 65 304 0.0 1.0 0.00 0.00 0.00 54 1011.5
20260501234650 65 314 0.0 0.0 0.00 0.00 0.00 54 1011.5
20260501234147 65 305 0.0 1.0 0.00 0.00 0.00 55 1011.4
20260501233645 66 314 0.0 0.0 0.00 0.00 0.00 54 1011.3
20260501233142 66 314 0.0 0.0 0.00 0.00 0.00 53 1011.2
20260501232638 66 315 0.0 0.0 0.00 0.00 0.00 49 1011.2
20260501232136 67 261 1.0 1.0 0.00 0.00 0.00 49 1011.3
20260501231633 68 201 3.0 3.0 0.00 0.00 0.00 47 1011.3
20260501231131 68 163 6.0 8.0 0.00 0.00 0.00 44 1011.2
20260501230630 68 310 5.0 8.0 0.00 0.00 0.00 43 1011.5
20260501230128 68 318 1.0 1.0 0.00 0.00 0.00 44 1011.3
20260501225625 68 275 2.0 2.0 0.00 0.00 0.00 46 1010.9
20260501225121 68 241 3.0 3.0 0.00 0.00 0.00 44 1011.2
20260501224618 68 143 3.0 5.0 0.00 0.00 0.00 45 1011.2
20260501224115 68 148 4.0 6.0 0.00 0.00 0.00 46 1011.3
20260501223612 69 168 3.0 5.0 0.00 0.00 0.00 45 1011.3
20260501223108 69 182 5.0 6.0 0.00 0.00 0.00 45 1011.2
20260501222604 69 148 4.0 5.0 0.00 0.00 0.00 45 1011.3
20260501222101 69 152 5.0 6.0 0.00 0.00 0.00 45 1011.3
20260501221558 68 179 4.0 5.0 0.00 0.00 0.00 46 1011.3
20260501221055 68 151 5.0 9.0 0.00 0.00 0.00 46 1011.4
20260501220553 68 191 3.0 5.0 0.00 0.00 0.00 46 1011.5
20260501220050 68 232 4.0 5.0 0.00 0.00 0.00 47 1011.5
20260501215546 67 177 4.0 5.0 0.00 0.00 0.00 46 1011.4
20260501215041 67 189 4.0 5.0 0.00 0.00 0.00 46 1011.5
20260501214537 68 115 5.0 8.0 0.00 0.00 0.00 46 1011.7
20260501214033 67 265 2.0 2.0 0.00 0.00 0.00 47 1011.7
20260501213530 67 140 3.0 5.0 0.00 0.00 0.00 47 1011.6
20260501213026 67 201 5.0 6.0 0.00 0.00 0.00 46 1011.6
20260501212522 68 209 3.0 3.0 0.00 0.00 0.00 45 1011.8
20260501212020 68 186 6.0 8.0 0.00 0.00 0.00 45 1011.7
20260501211516 67 179 6.0 7.0 0.00 0.00 0.00 46 1011.9
20260501211015 67 163 3.0 5.0 0.00 0.00 0.00 46 1011.8
20260501210510 68 208 5.0 6.0 0.00 0.00 0.00 46 1011.8
20260501210007 67 181 3.0 7.0 0.00 0.00 0.00 45 1012.0
20260501205504 66 271 3.0 5.0 0.00 0.00 0.00 46 1012.0
20260501205002 67 160 5.0 6.0 0.00 0.00 0.00 46 1012.0
20260501204457 67 180 4.0 6.0 0.00 0.00 0.00 46 1012.0
20260501203954 67 235 5.0 7.0 0.00 0.00 0.00 45 1012.0
20260501203450 67 142 5.0 8.0 0.00 0.00 0.00 44 1011.9
20260501202948 67 138 3.0 3.0 0.00 0.00 0.00 44 1012.3
20260501202444 67 219 3.0 5.0 0.00 0.00 0.00 45 1012.5
20260501201941 68 222 6.0 8.0 0.00 0.00 0.00 43 1012.4
20260501201438 68 299 1.0 2.0 0.00 0.00 0.00 42 1012.6
20260501200935 69 190 1.0 2.0 0.00 0.00 0.00 37 1012.5
20260501200432 69 157 5.0 6.0 0.00 0.00 0.00 36 1012.7
20260501195930 70 290 3.0 5.0 0.00 0.00 0.00 37 1012.6
20260501195426 69 92 2.0 2.0 0.00 0.00 0.00 37 1012.7
20260501194921 69 296 1.0 1.0 0.00 0.00 0.00 40 1012.8
20260501194418 70 210 2.0 2.0 0.00 0.00 0.00 37 1013.0
20260501193914 69 266 2.0 3.0 0.00 0.00 0.00 37 1013.2
20260501193412 69 178 4.0 5.0 0.00 0.00 0.00 41 1013.5
20260501192910 69 252 2.0 2.0 0.00 0.00 0.00 42 1013.4
20260501192407 69 270 1.0 2.0 0.00 0.00 0.00 43 1013.3
20260501191904 70 190 6.0 7.0 0.00 0.00 0.00 40 1013.3
20260501191401 70 314 1.0 2.0 0.00 0.00 0.00 44 1013.9
20260501190858 70 262 3.0 3.0 0.00 0.00 0.00 43 1014.0
20260501190354 68 285 2.0 2.0 0.00 0.00 0.00 45 1013.9
20260501185848 68 280 2.0 3.0 0.00 0.00 0.00 44 1014.1
20260501185345 68 202 5.0 7.0 0.00 0.00 0.00 44 1014.1
20260501184841 69 275 1.0 1.0 0.00 0.00 0.00 47 1014.3
20260501184337 68 120 4.0 6.0 0.00 0.00 0.00 43 1014.4
20260501183833 66 291 3.0 5.0 0.00 0.00 0.00 46 1014.1
20260501183330 66 200 6.0 6.0 0.00 0.00 0.00 47 1014.4
20260501182826 66 183 6.0 7.0 0.00 0.00 0.00 46 1014.3
20260501182324 65 278 3.0 3.0 0.00 0.00 0.00 44 1014.5
20260501181820 65 202 2.0 2.0 0.00 0.00 0.00 44 1014.7
20260501181317 66 227 5.0 7.0 0.00 0.00 0.00 44 1014.9
20260501180814 66 246 3.0 3.0 0.00 0.00 0.00 43 1014.9
20260501180310 66 278 3.0 5.0 0.00 0.00 0.00 44 1015.2
20260501175808 67 177 4.0 6.0 0.00 0.00 0.00 44 1015.1
20260501175306 66 152 2.0 5.0 0.00 0.00 0.00 46 1015.2
20260501174801 66 202 2.0 3.0 0.00 0.00 0.00 46 1015.2
20260501174259 65 199 4.0 5.0 0.00 0.00 0.00 44 1015.2
20260501173756 65 318 3.0 3.0 0.00 0.00 0.00 44 1015.5
20260501173253 65 211 3.0 3.0 0.00 0.00 0.00 44 1015.6
20260501172749 64 207 4.0 6.0 0.00 0.00 0.00 45 1015.6
20260501172244 64 200 3.0 3.0 0.00 0.00 0.00 46 1015.5
20260501171740 64 206 4.0 8.0 0.00 0.00 0.00 48 1015.7
20260501171237 62 230 2.0 3.0 0.00 0.00 0.00 48 1015.6
20260501170734 63 207 5.0 7.0 0.00 0.00 0.00 47 1016.0
20260501170231 63 248 3.0 3.0 0.00 0.00 0.00 44 1016.3
20260501165728 64 193 5.0 6.0 0.00 0.00 0.00 44 1016.0
20260501165226 63 302 2.0 2.0 0.00 0.00 0.00 46 1016.2
20260501164724 62 146 3.0 3.0 0.00 0.00 0.00 49 1016.3
20260501164220 62 158 3.0 3.0 0.00 0.00 0.00 48 1016.5
20260501163717 61 192 5.0 6.0 0.00 0.00 0.00 49 1016.5
20260501163214 61 295 1.0 2.0 0.00 0.00 0.00 51 1016.7
20260501162710 62 187 5.0 6.0 0.00 0.00 0.00 49 1016.8
20260501162206 61 185 4.0 5.0 0.00 0.00 0.00 50 1016.8
20260501161704 60 275 1.0 2.0 0.00 0.00 0.00 50 1016.8
20260501161201 60 183 6.0 8.0 0.00 0.00 0.00 51 1016.9
20260501160657 60 257 1.0 2.0 0.00 0.00 0.00 52 1016.9
20260501160155 60 177 4.0 6.0 0.00 0.00 0.00 53 1017.0
20260501155651 60 195 3.0 3.0 0.00 0.00 0.00 54 1017.2
20260501155148 60 176 5.0 7.0 0.00 0.00 0.00 53 1017.2
20260501154645 59 195 1.0 2.0 0.00 0.00 0.00 55 1017.2
20260501154143 59 180 6.0 9.0 0.00 0.00 0.00 52 1017.2
20260501153640 59 178 3.0 5.0 0.00 0.00 0.00 51 1017.3
20260501153137 59 202 4.0 6.0 0.00 0.00 0.00 53 1017.4
20260501152633 58 260 3.0 3.0 0.00 0.00 0.00 52 1017.4
20260501152130 58 272 3.0 5.0 0.00 0.00 0.00 53 1017.7
20260501151627 57 335 2.0 2.0 0.00 0.00 0.00 54 1017.5
20260501151124 57 275 3.0 3.0 0.00 0.00 0.00 54 1017.7
20260501150620 57 213 5.0 7.0 0.00 0.00 0.00 54 1017.7
20260501150116 57 281 1.0 2.0 0.00 0.00 0.00 53 1017.7
20260501145612 56 265 1.0 2.0 0.00 0.00 0.00 55 1017.4
20260501145111 56 206 4.0 6.0 0.00 0.00 0.00 55 1017.6
20260501144606 57 294 2.0 2.0 0.00 0.00 0.00 54 1017.7
20260501144101 57 104 2.0 3.0 0.00 0.00 0.00 55 1018.0
20260501143558 57 84 3.0 3.0 0.00 0.00 0.00 55 1017.9
20260501143055 55 248 2.0 2.0 0.00 0.00 0.00 55 1017.9